Location: Mileham
(52.7333°N, 0.8500°E)
Time: 10:30:16
(UTC+00:00)

Daily predictions for brighter satellites

Satellite Brightness Start Highest point End
(mag) Time Altitude Azimuth Time Altitude Azimuth Time Altitude Azimuth
Cosmos 2360 Rocket 3.1 20:18:08 10° NNW 20:23:28 39° NE 20:28:46 10° ESE
Cosmos 2016 Rocket 4.0 20:18:59 10° S 20:25:14 80° E 20:31:25 10° NNE
Cosmos 2173 Rocket 4.5 20:19:09 10° SSW 20:25:17 67° WNW 20:31:33 10° N
Cosmos 1461 3.9 20:23:37 10° SSE 20:26:21 20° ESE 20:29:05 10° ENE
CZ-4B R/B 3.6 20:22:34 10° S 20:28:12 69° WSW 20:33:48 10° NNW
CZ-4C R/B 2.3 20:25:12 10° WSW 20:29:36 70° NW 20:35:25 10° NE
CZ-4B R/B 4.2 20:26:18 10° SE 20:30:40 38° ENE 20:35:09 10° N
Cosmos 1992 Rocket 4.2 20:26:19 10° S 20:31:18 48° ESE 20:36:19 10° NE
ISS -3.8 20:32:44 10° WSW 20:36:03 65° S 20:39:23 10° E
Cosmos 2219 Rocket 3.3 20:31:39 10° NNW 20:36:48 34° NE 20:41:56 10° ESE
Cosmos 1437 Rocket 3.5 20:37:20 10° SSE 20:40:26 29° E 20:43:35 10° NNE
SL-08 R/B 3.3 20:38:57 10° NNE 20:43:49 80° ESE 20:48:34 10° SSW
Cosmos 1626 Rocket 3.5 20:41:41 10° N 20:46:04 78° E 20:50:27 10° SSE
DEBRIS 3.4 20:43:08 10° WSW 20:46:05 53° SSE 20:54:17 10° E
Cosmos 1743 4.3 20:44:08 10° NW 20:46:38 24° W 20:49:07 10° SSW
Cosmos 2098 Rocket 4.3 20:44:35 10° SE 20:48:25 25° E 20:51:51 10° NE
Cosmos 1452 Rocket 4.4 20:43:29 10° SW 20:48:36 54° WNW 20:53:46 10° NNE
NOSS 3-3 (A) 3.7 20:44:03 10° SSW 20:49:15 67° SE 20:55:34 10° NE
Terra 3.1 20:48:25 10° SSW 20:52:46 37° W 20:57:10 10° NNW
Cosmos 2151 2.9 20:49:57 10° N 20:54:05 70° ENE 20:58:09 10° SSE
Cosmos 2322 Rocket 2.5 20:49:51 10° NNW 20:55:29 62° NE 21:00:46 12° SE
Cosmos 1486 Rocket 4.3 20:50:30 10° NNW 20:55:44 61° ENE 21:00:35 12° SE
Helios 1A Rocket 3.9 20:52:48 10° N 20:55:46 37° WNW 20:58:42 10° SW
Cosmos 1302 Rocket 4.4 20:52:12 10° SW 20:57:21 69° WNW 21:02:35 10° NNE
Cosmos 1607 4.1 20:52:16 10° SW 20:58:27 80° NW 21:04:47 10° NE
IRS-1C Rocket 4.3 20:53:40 10° SSE 20:58:47 61° ENE 21:04:00 10° N
Cosmos 909 Rocket 4.0 20:53:28 10° SSW 20:59:43 74° SE 21:06:18 10° NE
Cosmos 2061 Rocket 4.1 20:54:04 10° S 21:00:18 90° S 21:06:40 10° N
Cosmos 2082 Rocket 2.5 20:55:44 10° SW 21:01:27 77° WNW 21:07:12 10° NNE
USA 306 1.5 20:59:32 10° W 21:02:34 75° NNW 21:04:31 10° ENE
CZ-4B R/B 2.4 21:09:42 13° SSE 21:12:39 88° W 21:16:10 10° NNW
Cosmos 2237 Rocket 4.5 21:08:50 10° NNW 21:12:40 18° NNE 21:16:29 10° ENE
USA 186 3.0 21:11:32 10° SSW 21:14:01 31° W 21:16:33 10° NNW
Okean O Rocket 2.6 21:12:20 10° S 21:16:24 41° W 21:20:29 10° NNW
Cosmos 2228 4.3 21:16:13 10° SW 21:20:04 38° WNW 21:23:56 10° N
Cosmos 1805 2.8 21:16:51 10° N 21:20:06 66° ENE 21:22:21 18° SSE
NOSS 3-3 (C) 3.8 21:15:48 10° SW 21:21:09 85° SE 21:27:42 10° NE
Cosmos 2278 3.9 21:15:49 10° NW 21:21:32 73° WSW 21:26:23 15° SSE
Meteor 1-5 Rocket 4.3 21:18:40 10° N 21:24:25 75° ENE 21:29:21 15° SSE
COSMOS 2428 4.1 21:19:33 10° NNW 21:24:33 30° NE 21:29:31 10° E
SL-16 R/B 2.7 21:20:28 10° NW 21:26:00 55° WSW 21:30:55 13° S
Okean 1-7 Rocket 3.7 21:22:43 10° N 21:27:12 68° ENE 21:30:35 17° SSE
Cosmos 1544 Rocket 3.7 21:23:43 10° SSW 21:28:03 72° WNW 21:32:23 10° N
CZ-2C R/B 1.8 21:27:13 22° SSE 21:28:52 79° ENE 21:31:39 10° NNW
NOSS 3-4 (A) 3.9 21:25:48 10° NW 21:32:22 73° SW 21:38:39 16° SSE
NOSS 3-4 (C) 3.9 21:26:26 10° NW 21:33:01 73° SW 21:39:18 16° SSE
Cosmos-2242 4.3 21:34:03 17° ESE 21:35:53 23° E 21:39:07 10° NE
Cosmos 1891 Rocket 4.5 21:31:09 10° S 21:37:16 84° W 21:43:21 10° N
Okean-O 4.3 21:33:41 10° SSW 21:37:27 28° W 21:41:15 10° NW
Cosmos 2034 Rocket 4.4 21:32:54 16° SSE 21:37:47 47° E 21:43:47 10° NNE
Cosmos 1933 3.6 21:37:27 10° SSW 21:41:14 64° WNW 21:45:02 10° N
Ariane Rocket 3.3 21:38:06 14° S 21:42:26 65° WSW 21:47:29 10° NNW
COSMOS 2406 3.4 21:36:50 10° SW 21:42:35 76° WNW 21:48:22 10° NNE
ATLAS 2AS CENTAUR R/B 4.4 21:37:23 10° WNW 21:43:34 34° N 21:49:43 10° NE
SPOT 3 Rocket 4.3 21:41:43 11° S 21:46:29 49° W 21:51:28 10° NNW
Nadezhda 4 Rocket 4.0 21:45:11 10° NNW 21:51:20 85° W 21:56:12 17° S
Cosmos 2333 Rocket 3.1 21:48:36 10° NW 21:53:52 40° WSW 21:58:17 14° S
Cosmos 1825 Rocket 3.6 21:52:03 10° NNW 21:56:24 77° W 21:59:17 21° S
Cosmos 1470 4.4 21:54:29 10° NNE 21:56:51 18° ENE 21:58:12 14° E
Helios 1B rocket 3.2 21:55:11 20° ESE 21:56:53 32° ENE 22:00:03 10° N
Cosmos 1763 Rocket 3.8 21:53:12 17° S 21:57:03 51° ESE 22:02:08 10° NNE
Cosmos 1536 3.5 21:54:04 10° N 21:57:31 36° ENE 21:59:12 23° ESE
Cosmos 1898 Rocket 4.5 21:53:24 10° NNW 21:58:15 38° NE 22:02:04 15° ESE
Okean 1 3.0 21:56:18 24° S 21:58:18 70° E 22:01:53 10° NNE
Cosmos 1707 3.0 21:59:51 26° ESE 22:00:10 27° E 22:02:39 10° NNE
Cosmos 2221 4.5 21:59:07 12° ESE 22:00:27 14° E 22:02:39 10° NE
Cosmos 1461 3.1 21:58:37 10° SW 22:02:17 61° NW 22:05:57 10° NE
Cosmos 1833 4.4 21:57:58 15° S 22:02:26 52° ESE 22:07:52 10° NE
Cosmos 1953 Rocket 3.5 21:58:07 10° N 22:02:29 75° ENE 22:04:56 25° SSE
Cosmos 44 3.6 21:57:51 10° NW 22:03:19 81° NE 22:06:56 21° SE
Cosmos 990 Rocket 4.0 21:58:26 10° NNW 22:03:38 85° WSW 22:06:54 23° SSE
Cosmos 2360 Rocket 2.7 22:02:08 10° NW 22:07:38 51° WSW 22:11:23 20° S
Cosmos 2195 Rocket 4.5 22:03:18 10° N 22:09:34 89° W 22:13:53 21° S
Cosmos 2322 4.2 22:04:03 10° NNW 22:09:40 54° NE 22:13:47 18° SE
ISS -3.8 22:09:26 10° W 22:12:45 66° S 22:14:19 28° ESE
USA 290 2.1 22:12:10 24° SSW 22:13:55 87° WNW 22:17:05 10° NNE
Cosmos 2026 Rocket 4.0 22:07:31 10° N 22:13:57 85° E 22:18:17 22° SSE
BREEZE-M DEB (TANK) 2.5 22:11:54 10° WSW 22:13:12 24° SW 22:13:12 24° SW
Cosmos 2058 Rocket 3.4 22:14:25 27° SSE 22:16:22 47° E 22:20:33 10° NNE
CZ-4C R/B 4.1 22:14:14 10° WNW 22:18:48 32° N 22:24:35 10° NE
Helios 1A 3.0 22:17:02 10° NNE 22:20:55 55° ESE 22:22:30 31° SSE
Cosmos 2219 Rocket 2.4 22:15:31 10° NW 22:21:06 62° WSW 22:24:29 24° S
Cosmos 1975 3.9 22:20:44 10° N 22:24:00 29° ENE 22:25:24 22° ESE
Cosmos 2098 Rocket 4.1 22:21:06 10° SSW 22:25:36 43° WNW 22:29:31 10° N
Cosmos 1076 Rocket 4.0 22:21:32 10° NNW 22:25:41 53° W 22:28:03 23° SSW
KORONAS-FOTON 4.1 22:25:06 35° SE 22:25:50 41° E 22:29:04 10° NNE
USA 306 3.2 22:27:30 10° WNW 22:28:32 20° WNW 22:28:32 20° WNW
RESURS DK-1 2.7 22:26:42 10° NNW 22:30:38 57° NE 22:32:35 27° ESE
ARIANE 5 R/B 3.2 22:32:16 25° SE 22:34:30 48° ENE 22:38:49 10° N
ALOS 2 3.4 22:33:58 24° ESE 22:36:10 42° ENE 22:40:20 10° N
Cosmos 2322 Rocket 3.5 22:34:21 10° NW 22:39:11 29° WSW 22:42:34 17° SSW
Cosmos 1766 3.3 22:41:46 10° NNW 22:44:53 48° W 22:45:46 36° SW
SL-16 R/B 4.4 22:40:58 10° NNW 22:45:19 22° NNE 22:49:38 10° E
Cosmos 372 Rocket 3.9 22:40:13 10° NNW 22:45:21 83° WSW 22:47:53 30° SSE
Cosmos 1271 Rocket 2.9 22:46:13 39° SE 22:46:44 43° E 22:49:59 10° NNE
Cosmos 1842 2.8 22:47:39 49° SE 22:48:03 54° E 22:51:09 10° NNE
Meteor 2-9 Rocket 4.2 22:47:41 10° N 22:53:04 72° ENE 22:55:56 29° SSE
Spot 4 3.9 22:51:57 31° SSE 22:54:14 73° ENE 22:59:03 10° NNW
Cosmos 540 Rocket 3.7 22:52:54 15° SW 22:57:13 67° WNW 23:02:23 10° NNE
Cosmos 2237 Rocket 2.9 22:52:33 10° NNW 22:58:07 50° NE 23:02:16 17° ESE
Aureole 1 Rocket 4.3 22:53:33 10° NNW 22:59:07 56° WSW 23:02:46 26° S
BREEZE-M DEB (TANK) 4.4 22:43:55 10° SW 23:00:40 58° SSE 23:04:48 10° E
Cosmos 1092 Rocket 4.4 22:55:19 10° NNW 23:01:19 56° W 23:05:07 23° SSW
Cosmos 1980 4.2 22:56:43 10° NNW 23:02:19 56° NE 23:06:12 20° SE
CZ-2C R/B 3.7 22:58:57 17° ESE 23:02:24 35° ENE 23:07:05 10° N
ARGOS Delta rocket 4.4 22:59:11 10° NNE 23:04:13 53° E 23:06:31 31° SSE
Cosmos 1937 Rocket 3.4 23:01:47 10° NNW 23:06:58 85° ENE 23:09:26 32° SSE
NOSS 8 (H) 4.4 23:05:24 10° NW 23:08:14 60° NE 23:08:57 43° E
COSMOS 2428 2.7 23:03:38 10° NW 23:09:21 75° WSW 23:12:10 31° SSE
Meteor 2-2 Rocket 4.5 23:05:51 21° SSW 23:09:41 67° WNW 23:15:29 10° N
Geosat 4.2 23:06:08 10° NNE 23:11:09 72° NW 23:15:10 16° SW
NOSS 0 Rocket 3.9 23:05:44 10° NW 23:11:56 87° WSW 23:15:26 28° SSE
Cosmos-2242 3.8 23:10:18 21° SW 23:12:38 42° WNW 23:16:35 10° N
Cosmos 2227 Rocket 4.1 23:11:04 13° ESE 23:12:46 14° E 23:15:39 10° ENE
Meteor 1-11 Rocket 3.8 23:07:11 10° N 23:12:53 70° ENE 23:15:45 29° SSE
Cosmos 468 Rocket 4.0 23:10:31 23° SSW 23:13:52 82° WNW 23:19:09 10° NNE
MetOp-A 4.2 23:18:10 28° SE 23:20:33 59° ENE 23:25:07 10° N
Cosmos 2263 Rocket 4.4 23:21:55 10° ESE 23:22:49 10° E 23:23:43 10° E
Cosmos 1812 Rocket 3.6 23:25:18 40° SSE 23:26:47 68° E 23:31:12 10° NNE
Cosmos 1238 Rocket 4.1 23:25:54 25° ESE 23:27:03 29° E 23:30:50 10° NNE
Helios 1B rocket 3.6 23:29:08 22° WSW 23:29:55 24° W 23:32:49 10° NW
Cosmos 1470 3.2 23:27:50 10° NNW 23:30:54 36° W 23:31:24 34° WSW
USA 234 3.6 23:25:24 10° ENE 23:31:34 42° SE 23:34:29 28° S
Cosmos 1707 4.4 23:31:20 14° W 23:32:26 16° WNW 23:34:22 10° NNW
Cosmos 1536 4.4 23:29:41 10° NW 23:32:32 22° W 23:33:43 19° WSW
SeaSat 1 3.5 23:28:37 12° ESE 23:32:47 42° NE 23:37:24 10° NNW
CZ-2C R/B 3.8 23:27:34 10° NNE 23:33:10 49° E 23:35:48 29° SSE
ACS3 Solar Sail 3.4 23:29:29 10° NE 23:34:01 22° E 23:37:20 14° SE
Helios 1B 4.5 23:30:08 10° NNE 23:34:24 72° ESE 23:35:46 41° S
Meteor 1-27 Rocket 4.2 23:32:34 29° SSE 23:35:15 51° E 23:40:46 10° NNE
NOSS 8 (E) 4.1 23:32:26 10° NW 23:35:21 75° NE 23:35:47 60° ESE
ATLAS 2AS CENTAUR R/B 4.1 23:29:48 10° NW 23:36:08 38° NNE 23:42:25 10° E
Cosmos 2221 2.5 23:35:23 39° SSW 23:36:52 74° WNW 23:41:05 10° N
BlueWalker 3 4.3 23:41:17 10° E 23:41:17 10° E 23:41:23 10° E
CZ-2C R/B 4.0 23:35:39 10° N 23:40:04 61° WNW 23:42:14 29° SW
Cosmos 1898 Rocket 4.1 23:35:25 10° NW 23:40:17 42° WSW 23:42:13 30° SSW
Cosmos 2279 Rocket 4.3 23:37:49 24° SSW 23:41:41 64° WNW 23:47:56 10° N
Cosmos 2297 Rocket 2.5 23:43:29 32° SSE 23:45:44 51° ESE 23:51:13 10° NE
ISS -1.6 23:46:21 10° W 23:47:15 16° W 23:47:15 16° W
Meteor 2-20 4.4 23:46:32 31° S 23:49:38 77° E 23:55:44 10° NNE
NOSS 8 (F) 3.9 23:48:33 10° NW 23:51:28 85° SW 23:51:35 81° SSE
SAR-Lupe-2 4.0 23:53:11 38° WSW 23:53:30 40° W 23:56:40 10° NNW
Meteor 2-10 Rocket 4.2 23:48:19 10° N 23:53:44 55° ENE 23:57:08 23° SE
GP-B 3.0 23:50:07 10° N 23:54:30 79° W 23:56:01 40° SSW
